Regional Weather Roundup
Issued by NWS

Home | Current Version | Previous Version | Graphics & Text | Print | Product List | Glossary On
Versions: 1 2 3 4 5 6 7 8 9 10 11 12 13 14 15 16 17 18 19 20 21 22 23 24 25 26 27 28 29 30 31 32 33 34 35 36 37 38 39 40 41 42 43 44 45 46 47 48 49 50
000
ASUS43 KMKX 210911
RWRWI

WISCONSIN REGIONAL WEATHER ROUNDUP
NATIONAL WEATHER SERVICE MILWAUKEE/SULLIVAN WI
300 AM CST TUE NOV 21 2017

NOTE: "FAIR" INDICATES FEW OR NO CLOUDS BELOW 12,000 FEET WITH NO
SIGNIFICANT WEATHER AND/OR OBSTRUCTIONS TO VISIBILITY.

WIZ001-002-006>008-014>016-023>028-211000-
NORTHWEST WISCONSIN

CITY           SKY/WX    TMP DP  RH WIND       PRES   REMARKS
SUPERIOR ARPT  CLOUDY    30  16  55 W23G38    29.51R WCI  17
ASHLAND        CLOUDY    33  19  56 W20G36    29.44R WCI  21
HAYWARD        CLEAR     33  16  49 W13G29    29.47R WCI  24
SIREN          MOCLDY    33  21  62 W15G25    29.54R WCI  23
CUMBERLAND     PTCLDY    32  25  74 W24G32    29.52R WCI  19
RICE LAKE      CLEAR     34  26  71 W13G20    29.53R WCI  25
CHETEK         CLEAR     35  26  69 W12G20    29.52R WCI  26
LADYSMITH      CLEAR     35  23  60 W15G22    29.48R WCI  26
EAU CLAIRE     CLEAR     37  25  61 W18       29.54R WCI  27
MENOMONIE      CLEAR     37  24  59 W14G23    29.56R WCI  28
NEW RICHMOND   CLEAR     33  22  65 W18G24    29.58R WCI  21
OSCEOLA        PTCLDY    33  24  68 W16G22    29.61R WCI  23
$$

WIZ003>005-009-010-017-018-211000-
NORTH CENTRAL WISCONSIN

CITY           SKY/WX    TMP DP  RH WIND       PRES   REMARKS
MANITOWISH WTR MOCLDY    34  26  72 W10G26    29.36R WCI  26
ARBOR VITAE    CLEAR     37  28  71 W14G21    29.36R WCI  28
WOODRUFF       CLEAR     37  28  71 W14G21    29.36R WCI  28
RHINELANDER    CLEAR     36  27  69 W18G25    29.37R WCI  26
EAGLE RIVER    MOCLDY    35  26  71 W12G17    29.34R WCI  27
LAND O LAKES   MOCLDY    36  27  70 W12G22    29.34R WCI  28
PHILLIPS       CLEAR     34  23  62 W13G21    29.41R WCI  25
TOMAHAWK       CLEAR     35  26  68 W9G17     29.40R WCI  28
MEDFORD        CLEAR     35  26  71 W10G18    29.44R WCI  27
MERRILL        CLEAR     37  27  68 W12G18    29.43R WCI  29
$$

WIZ029-030-035-036-043>047-211000-
CENTRAL WISCONSIN

CITY           SKY/WX    TMP DP  RH WIND       PRES   REMARKS
WAUSAU         CLEAR     39  26  59 W17G29    29.43R WCI  30
MOSINEE        CLEAR     37  28  70 W13       29.45R WCI  29
MARSHFIELD     CLEAR     38  25  59 W13       29.46R WCI  30
STEVENS POINT  CLEAR     39  26  59 SW12G18   29.45F WCI  32
WAUPACA        CLEAR     44  29  54 SW10G17   29.47S
WAUTOMA        CLEAR     43  27  53 SW10      29.50R
WISC RAPIDS    CLEAR     41  27  57 W12       29.49S
CAMP DOUGLAS   CLEAR    N/A N/A N/A SW12      29.53R
$$

WIZ011>013-019>022-031-037>040-048>050-211000-
NORTHEAST WISCONSIN

CITY           SKY/WX    TMP DP  RH WIND       PRES   REMARKS
ANTIGO         CLEAR     37  27  69 W14G21    29.40R WCI  28
SHAWANO        CLEAR     44  29  54 SW8       29.41F
OCONTO         CLEAR     42  29  61 SW8       29.41S
STURGEON BAY   PTCLDY    44  30  57 SW14      29.41S
GREEN BAY      CLEAR     42  32  67 SW10      29.44F
MANITOWOC      CLOUDY    47  31  53 SW14      29.48S
APPLETON       CLEAR     41  27  56 SW14      29.45F
CLINTONVILLE   CLEAR     43  27  52 SW14G20   29.44S
OSHKOSH        PTCLDY    44  31  60 SW9G17    29.49R
$$

WIZ032>034-041-042-053>061-211000-
SOUTHWEST WISCONSIN

CITY           SKY/WX    TMP DP  RH WIND       PRES   REMARKS
LA CROSSE      CLEAR     42  26  53 W15G22    29.58R
SPARTA         CLEAR     40  29  64 SW6       29.56R
VIROQUA        CLEAR     39  29  68 W14       29.58R WCI  31
BOSCOBEL       PTCLDY    42  29  59 S7        29.62R
PRAIRIE DU CHI CLEAR     40  27  61 NW3       29.64R
PLATTEVILLE    CLEAR     40  32  73 SW8       29.62S WCI  35
$$

WIZ056-057-062-063-064-067-068-211000-
SOUTH CENTRAL WISCONSIN

CITY           SKY/WX    TMP DP  RH WIND       PRES   REMARKS
REEDSBURG      CLEAR     42  29  58 SW9       29.55S
BARABOO/DELLS  CLEAR     42  28  57 SW10      29.54S
LONE ROCK      CLEAR     39  31  72 W8        29.59R WCI  33
MINERAL POINT  PTCLDY    41  32  70 W9        29.60S
MADISON        PTCLDY    45  32  60 W7        29.57R
MIDDLETON      PTCLDY    44  31  60 SW8       29.58S
WATERTOWN      CLOUDY    42  33  69 SW8       29.57R
MONROE         PTCLDY    43  32  65 SW15      29.61R
JANESVILLE     CLOUDY    43  32  65 SW9       29.60R
$$

WIZ051-052-058>065-066-070>072-211000-
SOUTHEAST WISCONSIN

CITY           SKY/WX    TMP DP  RH WIND       PRES   REMARKS
MILWAUKEE      CLOUDY    44  33  65 SW15      29.57S
WAUKESHA       CLOUDY    43  30  61 SW15G23   29.58S
MILWAUKEE/TIMM CLOUDY    43  30  61 SW10      29.56F
RACINE         CLOUDY    46  32  58 SW16G25   29.60S
BURLINGTON     CLOUDY    44  37  73 SW13      29.59S
KENOSHA        CLOUDY    45  31  58 SW17G30   29.60R
FOND DU LAC    PTCLDY    44  30  57 SW14      29.51S
SHEBOYGAN      CLOUDY    46  33  60 SW13      29.50S
WEST BEND      CLOUDY    45  30  57 SW14G22   29.53S
JUNEAU         MOCLDY    41  32  69 SW12      29.56R
$$

LSZ147-162-211000-
LAKE SUPERIOR

STATION/POSITION TIME  TEMP    WIND        PRES    WAVE
                       AIR SEA DIR/SP/G            HT/PER
                 (UTC) (F)     (DEG/KT/KT) (MB)    (FT/S)
DEVILS ISLAND    0900   33     290/ 35/ 40  996.2R
SAXON HARBOR     0900   37     290/ 17      995.6
$$

LMZ867-665-643>646-211000-
LAKE MICHIGAN

STATION/POSITION TIME  TEMP    WIND        PRES    WAVE
                       AIR SEA DIR/SP/G            HT/PER
                 (UTC) (F)     (DEG/KT/KT) (MB)    (FT/S)
N MID LAKE BUOY  0850   48 48  220/ 23/ 27  994.5F  10/ 9
NORTHPORT PIER   0840   47     230/  7/ 15  994.9S
KEWAUNEE LAKESHO 0848   47     230/ 10/ 16  996.5F
SHEBOYGAN LAKESH 0900   48     240/ 15/ 19  999.1R
PORT WASHINGTON  0840   48     250/ 12/ 18 1001.0S
MILWAUKEE LAKESH 0850   45     230/ 15/ 16   N/A
S MID LAKE BUOY  0850   47 48  240/ 25/ 29 1002.6R   8/ 7
KENOSHA   LAKESH 0900   47     230/ 13/ 27 1002.7
$$

TC  - TEMPERATURE IN CELSIUS
VSB - VISIBILITY IN STATUTE MILES
WCI - WIND CHILL INDEX
HX  - HEAT INDEX





USA.gov is the U.S. government's official web portal to all federal, state and local government web resources and services.